Weather History for Shenandoah, IA

Change the Weather History Date:

Wednesday, February 20, 2013

  Actual Average Record
Temperature  
Mean Temperature 16 °F -  
Max Temperature 26 °F 41 °F 66 °F (2011)
Min Temperature 5 °F 22 °F -4 °F (2008)
Degree Days  
Heating Degree Days 50    
Moisture  
Dew Point 0 °F    
Average Humidity 51    
Maximum Humidity 72    
Minimum Humidity 29    
Precipitation  
Precipitation 0.00 in - - ()
Sea Level Pressure  
Sea Level Pressure 30.33 in    
Wind  
Wind Speed 6 mph (East)    
Max Wind Speed 14 mph    
Max Gust Speed 17 mph    
Visibility 10 miles    
Events      
Averages and records for this station are not official NWS values.
T = Trace of Precipitation, MM = Missing Value Source: NWS Daily Summary

Daily Weather History Graph

Daily Weather History Graph

Search for Another Location

Airport:

Trip Planner

Search our weather history database for the weather conditions in past years. The results will help you decide how hot, cold, wet, or windy it might be!

Date:

Astronomy

Feb. 20, 2013 Rise Set
Actual Time 7:08 AM CST 6:02 PM CST
Civil Twilight 6:40 AM CST 6:30 PM CST
Nautical Twilight 6:08 AM CST 7:02 PM CST
Astronomical Twilight 5:37 AM CST 7:34 PM CST
Moon 1:23 PM CST (2/20) 3:30 AM CST (2/20)
Length of Visible Light 11h 49m
Length of Day
10h 54m
Waxing Gibbous, 76% of the Moon is Illuminated
Feb 20
Waxing Gibbous
Feb 25
Full
Mar 4
Last Quarter
Mar 11
New
Mar 19
First Quarter

Hourly Weather History & Observations

Time (CST) Temp. Windchill Dew Point Humidity Pressure Visibility Wind Dir Wind Speed Gust Speed Precip Events Conditions
12:15 AM 8.6 °F - -0.4 °F 67% 30.39 in 10.0 mi Calm Calm - N/A   Scattered Clouds
12:35 AM 10.4 °F 4.0 °F -0.4 °F 62% 30.40 in 10.0 mi WNW 3.5 mph - N/A   Scattered Clouds
12:55 AM 8.6 °F - -0.4 °F 67% 30.39 in 10.0 mi Calm Calm - N/A   Scattered Clouds
1:15 AM 8.6 °F -1.3 °F -0.4 °F 67% 30.39 in 10.0 mi North 5.8 mph - N/A   Scattered Clouds
1:35 AM 8.6 °F - -0.4 °F 67% 30.40 in 10.0 mi Calm Calm - N/A   Scattered Clouds
1:55 AM 8.6 °F -1.3 °F -0.4 °F 67% 30.40 in 10.0 mi NNE 5.8 mph - N/A   Scattered Clouds
2:15 AM 8.6 °F 0.1 °F -0.4 °F 67% 30.40 in 10.0 mi North 4.6 mph - N/A   Scattered Clouds
2:35 AM 6.8 °F -2.0 °F -0.4 °F 72% 30.40 in 10.0 mi NNE 4.6 mph - N/A   Scattered Clouds
2:55 AM 6.8 °F -0.1 °F -2.2 °F 67% 30.39 in 10.0 mi North 3.5 mph - N/A   Scattered Clouds
3:15 AM 6.8 °F -2.0 °F -0.4 °F 72% 30.38 in 10.0 mi North 4.6 mph - N/A   Scattered Clouds
3:35 AM 6.8 °F -6.9 °F -0.4 °F 72% 30.36 in 10.0 mi NNE 9.2 mph - N/A   Scattered Clouds
3:55 AM 6.8 °F -5.9 °F -2.2 °F 67% 30.37 in 10.0 mi NNE 8.1 mph - N/A   Scattered Clouds
4:15 AM 6.8 °F -3.5 °F -2.2 °F 67% 30.38 in 10.0 mi NNE 5.8 mph - N/A   Scattered Clouds
4:35 AM 6.8 °F -7.8 °F -2.2 °F 67% 30.36 in 10.0 mi NE 10.4 mph - N/A   Scattered Clouds
4:55 AM 6.8 °F -5.9 °F -2.2 °F 67% 30.36 in 10.0 mi NE 8.1 mph - N/A   Scattered Clouds
5:15 AM 6.8 °F -3.5 °F -2.2 °F 67% 30.36 in 10.0 mi NE 5.8 mph - N/A   Scattered Clouds
5:35 AM 5.0 °F -4.1 °F -2.2 °F 72% 30.36 in 10.0 mi NNE 4.6 mph - N/A   Scattered Clouds
5:55 AM 6.8 °F -4.8 °F -2.2 °F 67% 30.36 in 10.0 mi NE 6.9 mph - N/A   Scattered Clouds
6:15 AM 6.8 °F -5.9 °F -2.2 °F 67% 30.36 in 10.0 mi NE 8.1 mph - N/A   Scattered Clouds
6:55 AM 5.0 °F -9.1 °F -2.2 °F 72% 30.36 in 10.0 mi NE 9.2 mph - N/A   Scattered Clouds
7:15 AM 6.8 °F -3.5 °F -2.2 °F 67% 30.37 in 10.0 mi ENE 5.8 mph - N/A   Scattered Clouds
7:35 AM 6.8 °F -7.8 °F -2.2 °F 67% 30.36 in 10.0 mi ENE 10.4 mph - N/A   Clear
7:55 AM 6.8 °F -5.9 °F -2.2 °F 67% 30.39 in 10.0 mi East 8.1 mph - N/A   Clear
8:15 AM 8.6 °F -3.7 °F -2.2 °F 62% 30.40 in 10.0 mi East 8.1 mph - N/A   Clear
8:35 AM 8.6 °F -3.7 °F -2.2 °F 62% 30.39 in 10.0 mi East 8.1 mph - N/A   Clear
8:55 AM 10.4 °F -0.4 °F -0.4 °F 62% 30.40 in 10.0 mi East 6.9 mph - N/A   Clear
9:15 AM 10.4 °F -2.4 °F -0.4 °F 62% 30.40 in 10.0 mi ESE 9.2 mph - N/A   Clear
9:35 AM 10.4 °F -1.5 °F -0.4 °F 62% 30.39 in 10.0 mi East 8.1 mph - N/A   Clear
9:55 AM 12.2 °F -0.2 °F 1.4 °F 62% 30.40 in 10.0 mi ESE 9.2 mph - N/A   Clear
10:15 AM 12.2 °F 1.7 °F 1.4 °F 62% 30.40 in 10.0 mi East 6.9 mph - N/A   Clear
10:35 AM 14.0 °F 2.9 °F 1.4 °F 57% 30.40 in 10.0 mi ESE 8.1 mph - N/A   Clear
10:55 AM 15.8 °F 4.2 °F 1.4 °F 53% 30.40 in 10.0 mi ESE 9.2 mph - N/A   Clear
11:15 AM 15.8 °F 5.1 °F 1.4 °F 53% 30.40 in 10.0 mi ESE 8.1 mph - N/A   Clear
11:35 AM 17.6 °F 6.4 °F 1.4 °F 49% 30.39 in 10.0 mi East 9.2 mph - N/A   Clear
11:55 AM 19.4 °F 10.4 °F 1.4 °F 46% 30.38 in 10.0 mi East 6.9 mph - N/A   Clear
12:15 PM 19.4 °F 10.4 °F 1.4 °F 46% 30.37 in 10.0 mi East 6.9 mph - N/A   Clear
12:35 PM 19.4 °F 11.5 °F 1.4 °F 46% 30.37 in 10.0 mi SE 5.8 mph - N/A   Clear
12:55 PM 21.2 °F 12.6 °F 1.4 °F 42% 30.36 in 10.0 mi ESE 6.9 mph - N/A   Clear
1:15 PM 21.2 °F 14.9 °F 1.4 °F 42% 30.35 in 10.0 mi East 4.6 mph - N/A   Clear
1:35 PM 21.2 °F 12.6 °F 1.4 °F 42% 30.33 in 10.0 mi ESE 6.9 mph - N/A   Clear
1:55 PM 21.2 °F 12.6 °F 1.4 °F 42% 30.32 in 10.0 mi ESE 6.9 mph - N/A   Clear
2:15 PM 23.0 °F 11.7 °F 1.4 °F 39% 30.29 in 10.0 mi East 11.5 mph - N/A   Clear
2:35 PM 24.8 °F 16.1 °F -0.4 °F 34% 30.30 in 10.0 mi SE 8.1 mph - N/A   Clear
2:55 PM 24.8 °F 15.3 °F -0.4 °F 34% 30.29 in 10.0 mi East 9.2 mph - N/A   Clear
3:15 PM 24.8 °F 16.9 °F -0.4 °F 34% 30.28 in 10.0 mi ESE 6.9 mph - N/A   Clear
3:35 PM 26.6 °F 15.7 °F -0.4 °F 31% 30.28 in 10.0 mi East 12.7 mph - N/A   Clear
3:55 PM 26.6 °F 16.8 °F -2.2 °F 29% 30.27 in 10.0 mi East 10.4 mph - N/A   Clear
4:15 PM 26.6 °F 17.5 °F -2.2 °F 29% 30.27 in 10.0 mi East 9.2 mph - N/A   Clear
4:35 PM 26.6 °F 16.2 °F -2.2 °F 29% 30.26 in 10.0 mi East 11.5 mph - N/A   Clear
4:55 PM 26.6 °F 17.5 °F -2.2 °F 29% 30.25 in 10.0 mi East 9.2 mph - N/A   Clear
5:15 PM 26.6 °F 15.7 °F -2.2 °F 29% 30.25 in 10.0 mi East 12.7 mph - N/A   Clear
5:35 PM 26.6 °F 16.8 °F -0.4 °F 31% 30.24 in 10.0 mi East 10.4 mph - N/A   Scattered Clouds
5:55 PM 26.6 °F 17.5 °F -0.4 °F 31% 30.24 in 10.0 mi East 9.2 mph - N/A   Overcast
6:15 PM 24.8 °F 15.3 °F -0.4 °F 34% 30.25 in 10.0 mi East 9.2 mph - N/A   Overcast
6:35 PM 24.8 °F 15.3 °F -0.4 °F 34% 30.25 in 10.0 mi East 9.2 mph - N/A   Overcast
6:55 PM 24.8 °F 16.1 °F -0.4 °F 34% 30.25 in 10.0 mi ESE 8.1 mph - N/A   Overcast
7:15 PM 24.8 °F 15.3 °F 1.4 °F 36% 30.24 in 10.0 mi East 9.2 mph - N/A   Overcast
7:35 PM 24.8 °F 15.3 °F 1.4 °F 36% 30.24 in 10.0 mi East 9.2 mph - N/A   Overcast
7:55 PM 24.8 °F 15.3 °F 3.2 °F 40% 30.23 in 10.0 mi East 9.2 mph - N/A   Overcast
8:15 PM 24.8 °F 16.1 °F 3.2 °F 40% 30.24 in 10.0 mi East 8.1 mph - N/A   Overcast
8:35 PM 24.8 °F 14.0 °F 3.2 °F 40% 30.24 in 10.0 mi East 11.5 mph - N/A   Overcast
8:55 PM 24.8 °F 12.9 °F 3.2 °F 40% 30.24 in 10.0 mi East 13.8 mph - N/A   Overcast
9:15 PM 24.8 °F 13.4 °F 3.2 °F 40% 30.24 in 10.0 mi East 12.7 mph - N/A   Overcast
9:35 PM 24.8 °F 16.1 °F 3.2 °F 40% 30.24 in 10.0 mi East 8.1 mph - N/A   Overcast
9:55 PM 24.8 °F 14.0 °F 3.2 °F 40% 30.25 in 10.0 mi East 11.5 mph - N/A   Overcast
10:35 PM 24.8 °F 14.0 °F 3.2 °F 40% 30.26 in 10.0 mi East 11.5 mph - N/A   Overcast
10:55 PM 23.0 °F 11.7 °F 3.2 °F 43% 30.26 in 10.0 mi East 11.5 mph - N/A   Overcast
11:15 PM 23.0 °F 12.4 °F 5.0 °F 46% 30.25 in 10.0 mi East 10.4 mph 16.1 mph N/A   Overcast
11:35 PM 23.0 °F 12.4 °F 5.0 °F 46% 30.25 in 10.0 mi East 10.4 mph - N/A   Overcast
11:55 PM 23.0 °F 11.1 °F 5.0 °F 46% 30.24 in 10.0 mi East 12.7 mph 17.3 mph N/A   Overcast